Wind_Speed
43 43 43 43 44 44 44 44 45 45 45 46 47 48 48 49 50 51 51 52 52 52 53 54 54 54 55 55 56 57 57 58 58 56 55 55 55 55 56 58 59 59 60
42 43 43 43 44 44 44 45 45 46 46 47 48 49 49 50 51 51 52 52 53 54 54 55 54 54 55 56 57 57 56 56 57 56 55 54 55 56 57 58 60 60 60
41 42 42 43 44 44 44 45 45 46 47 48 48 50 50 51 51 52 52 52 53 53 54 54 54 55 55 56 56 55 55 55 56 56 55 55 56 57 58 59 60 60 60
41 41 42 43 44 44 45 45 46 47 48 48 49 50 50 51 51 51 51 51 52 53 53 54 54 54 54 55 55 55 55 55 55 56 56 56 56 57 58 57 56 56 56
41 41 41 42 44 44 45 46 47 48 49 49 49 50 50 50 50 51 51 51 52 52 53 53 53 53 53 53 53 53 54 55 55 56 56 57 57 56 56 56 55 54 54
42 42 43 43 44 44 45 46 48 48 49 49 49 49 49 49 50 51 51 51 52 52 52 52 51 51 51 52 52 53 54 55 56 55 56 56 56 56 55 55 54 53 53
42 43 43 44 44 44 46 47 47 48 48 47 48 49 49 50 50 51 51 52 52 52 51 50 50 50 50 51 51 53 54 55 55 55 55 55 54 54 54 54 53 53 53
43 43 44 44 45 45 45 45 45 46 47 47 48 48 49 50 50 50 50 50 50 50 49 49 49 49 50 50 51 52 52 53 54 54 54 53 53 53 53 52 51 51 51
42 43 44 44 44 45 45 45 45 46 46 47 47 47 48 49 49 49 49 49 49 48 48 49 50 50 50 51 51 51 52 52 53 52 52 51 51 51 51 51 50 49 49
42 43 43 44 45 45 45 45 45 46 46 46 46 46 47 47 47 48 48 47 47 47 48 49 49 50 50 51 52 52 52 51 50 49 49 49 49 49 49 49 48 49 48
41 42 42 43 44 44 45 45 45 46 45 45 45 45 46 46 45 46 46 46 46 46 47 47 48 49 50 51 51 50 49 48 47 47 47 47 47 47 47 47 47 48 47
41 42 43 43 44 44 44 44 45 45 45 44 44 44 44 44 44 45 45 45 45 45 46 46 47 48 49 49 48 48 47 46 45 45 45 45 45 45 45 45 46 45 44
41 42 42 41 42 43 43 43 43 43 43 42 41 41 41 42 43 43 43 44 45 45 45 46 46 47 47 46 46 45 45 44 44 44 44 44 44 44 43 43 43 42 41
40 40 40 40 41 41 41 41 41 41 41 40 39 40 40 41 42 42 43 44 44 45 44 44 45 44 44 44 44 43 43 43 43 43 43 43 42 42 42 41 40 39 37
39 39 39 39 39 39 39 39 39 39 39 38 38 39 39 40 40 40 41 41 42 42 42 42 43 42 42 42 42 41 42 42 42 43 42 41 41 40 39 39 38 37 35
37 37 37 37 38 38 38 38 38 38 38 38 39 39 39 38 38 38 39 40 40 41 40 40 40 41 40 40 40 41 41 42 42 42 41 40 39 38 37 37 36 35 33
36 36 35 36 36 37 37 36 36 37 38 38 38 37 37 37 37 38 38 38 39 39 39 39 40 40 40 40 40 40 40 40 41 40 39 38 37 36 35 35 34 32 30
34 34 34 34 35 35 35 35 35 35 36 36 36 36 36 36 36 36 37 37 37 37 37 38 39 38 38 38 38 38 38 38 38 38 37 36 35 34 34 33 31 30 29
33 33 33 34 34 34 34 34 34 34 34 34 34 34 34 34 35 35 35 35 35 36 37 37 37 37 37 37 37 36 36 36 36 35 34 33 33 32 31 30 29 28 27
32 32 33 33 33 33 33 33 32 32 32 33 32 32 32 32 33 34 33 34 34 35 36 36 36 36 36 36 35 35 35 34 34 33 32 31 31 30 29 28 27 27 26
31 31 31 31 31 31 31 30 30 31 30 30 30 30 30 31 32 32 33 33 34 34 35 35 34 34 34 34 34 34 33 32 31 30 30 30 28 28 27 26 26 26 25
29 29 29 29 29 29 29 29 29 29 28 28 29 29 30 31 32 32 33 33 33 34 34 34 33 33 32 32 31 31 30 29 29 29 28 27 26 26 25 25 25 24 23
28 28 28 29 29 29 28 29 29 28 28 28 29 30 31 31 31 32 32 33 33 33 32 31 31 31 30 29 29 28 28 27 27 26 25 25 24 24 23 23 23 22 20
26 26 27 27 27 27 27 28 28 28 28 29 30 30 31 31 31 31 32 31 31 31 30 29 29 28 27 26 26 26 25 24 24 23 23 22 22 22 21 21 21 20 18
26 26 26 26 26 26 27 27 27 27 27 28 29 29 29 30 29 29 29 28 28 27 27 26 26 25 24 24 23 23 22 22 22 22 21 21 20 20 19 19 19 17 15
26 26 26 26 26 26 26 26 26 26 27 27 27 27 27 26 26 26 26 25 25 24 24 23 23 23 23 22 22 22 21 21 21 20 19 19 18 18 18 17 16 14 11
Wind_Direction
259 260 261 263 264 266 266 267 268 269 271 273 274 276 277 278 279 280 281 282 283 285 286 286 287 288 289 289 290 290 290 291 291 291 291 291 291 291 291 291 291 290 290
259 260 261 262 264 266 267 268 269 270 271 273 275 276 277 279 280 280 281 283 283 284 285 287 287 288 289 289 290 290 290 291 292 292 292 292 292 292 292 291 291 291 290
258 260 261 262 264 266 267 268 269 270 272 274 275 277 278 279 279 280 281 283 283 284 286 287 288 288 289 289 289 290 291 291 292 293 293 293 293 294 293 293 292 292 291
259 260 261 263 265 266 267 268 269 271 273 275 276 277 278 279 280 281 281 283 284 286 287 288 288 289 289 289 290 290 291 292 293 294 294 294 295 295 294 294 294 293 293
259 260 262 264 265 266 268 269 270 272 274 276 277 278 279 280 280 281 282 283 285 286 288 288 289 289 290 290 290 291 292 292 293 294 294 295 295 295 295 295 294 294 294
259 260 261 264 266 267 269 271 271 273 275 276 277 278 279 281 282 283 283 284 286 287 288 289 289 289 290 290 291 292 293 293 294 294 295 295 295 295 295 295 295 295 294
258 260 262 264 266 268 269 271 272 273 275 276 277 278 280 281 282 283 284 285 286 288 288 289 289 289 290 291 292 293 294 294 295 295 295 295 295 296 296 297 297 297 296
258 260 263 265 267 269 271 272 273 274 275 276 278 279 281 282 283 283 284 285 287 288 289 289 289 290 291 291 292 293 294 295 295 295 295 297 297 298 298 298 298 297 297
259 261 263 265 267 269 270 272 273 274 276 278 279 280 281 282 283 283 284 285 286 287 288 289 290 291 292 292 293 294 295 296 295 295 296 297 298 299 299 298 298 298 298
261 262 264 265 267 269 270 271 273 275 276 278 279 280 281 282 283 283 284 285 286 287 288 289 290 291 292 292 293 294 295 296 296 295 296 298 299 299 299 299 299 300 300
264 264 265 267 268 269 271 271 272 274 276 278 279 280 281 282 282 284 285 286 287 288 289 289 290 292 292 293 294 295 295 296 296 295 296 298 299 300 300 300 301 301 301
266 267 267 268 270 270 271 272 273 274 276 277 279 280 282 282 283 285 286 287 289 289 290 290 291 292 293 294 295 295 295 297 297 297 298 299 300 300 300 301 302 302 303
267 268 269 270 270 271 271 272 272 274 275 277 278 279 280 282 283 285 286 288 289 290 291 292 293 294 294 294 294 295 296 297 298 299 300 300 300 301 301 302 303 303 303
268 269 269 268 269 270 271 271 272 273 274 276 277 279 281 283 284 286 288 289 290 291 292 293 294 295 295 295 295 296 296 298 299 300 301 301 301 301 301 302 303 302 302
267 266 267 267 267 268 268 269 270 271 273 275 278 280 283 284 286 287 288 289 290 291 293 294 294 295 295 295 295 297 298 299 300 302 302 302 301 301 301 302 303 303 302
266 266 267 266 267 266 266 268 269 271 274 277 279 282 284 285 286 287 288 290 291 293 294 295 296 296 296 297 296 297 298 300 300 301 302 302 302 302 302 302 302 301 301
266 266 266 266 267 267 268 269 270 272 275 278 280 282 283 284 286 287 289 291 293 294 295 296 297 297 298 298 298 298 299 300 300 302 303 303 303 302 302 302 302 300 300
265 265 266 267 267 268 269 270 271 272 274 277 280 282 283 285 286 288 290 293 295 296 296 297 298 298 298 298 299 300 300 301 302 303 303 303 303 302 302 302 301 301 300
265 266 267 269 269 269 270 271 271 272 274 277 279 281 283 285 287 289 292 293 295 296 297 298 298 299 299 299 300 301 302 302 303 303 303 303 303 303 302 302 301 301 301
266 267 268 269 268 268 269 270 271 272 275 277 280 282 284 286 288 290 292 294 296 298 299 299 299 300 300 300 300 301 302 303 303 303 302 303 303 302 302 302 301 301 300
266 267 268 268 268 268 269 270 271 273 276 279 281 283 285 288 289 290 292 295 297 299 300 300 301 301 301 300 301 302 303 303 303 303 302 302 301 301 302 301 301 301 302
268 269 269 269 269 270 270 271 273 275 277 279 281 283 285 287 289 290 292 294 297 298 299 300 300 301 302 303 303 303 304 304 304 304 303 302 302 303 303 302 302 302 302
269 270 270 270 271 271 271 272 274 275 276 278 281 283 286 288 289 291 292 294 297 298 300 300 302 303 303 303 304 304 305 306 306 306 305 304 304 305 305 304 303 303 301
269 270 271 271 271 271 273 274 275 276 277 280 282 285 287 289 290 291 293 295 298 299 301 302 304 304 305 305 306 306 307 308 308 308 308 308 307 307 308 308 306 304 301
271 271 272 272 272 273 275 276 277 278 279 282 284 286 288 290 291 292 294 297 299 300 302 303 304 305 306 308 308 308 309 310 311 310 310 309 309 309 309 310 309 307 302
271 272 273 273 273 274 275 276 277 279 281 283 285 287 289 290 291 293 295 297 299 300 301 302 304 305 307 308 308 308 309 311 311 312 312 312 312 311 312 312 311 308 303
Height
5700 5701 5702 5703 5703 5703 5703 5703 5703 5703 5702 5701 5700 5698 5696 5695 5693 5691 5689 5686 5683 5681 5678 5674 5671 5667 5663 5659 5655 5651 5646 5641 5638 5638 5634 5630 5625 5620 5615 5610 5606 5601 5597
5689 5690 5690 5691 5691 5692 5692 5691 5691 5691 5690 5689 5688 5686 5684 5682 5680 5678 5676 5673 5670 5667 5664 5660 5657 5653 5649 5645 5641 5637 5632 5628 5623 5621 5619 5615 5610 5605 5600 5595 5590 5585 5580
5677 5678 5679 5680 5680 5680 5680 5680 5679 5679 5678 5677 5676 5674 5672 5670 5667 5665 5662 5659 5657 5654 5650 5647 5643 5639 5635 5631 5627 5623 5618 5614 5609 5605 5603 5600 5595 5589 5584 5579 5574 5568 5563
5666 5667 5668 5669 5669 5669 5669 5668 5668 5667 5666 5665 5663 5661 5659 5657 5654 5652 5649 5646 5644 5640 5637 5633 5629 5625 5621 5617 5613 5609 5604 5600 5596 5591 5587 5584 5580 5574 5568 5563 5559 5553 5548
5655 5656 5657 5657 5657 5657 5657 5657 5656 5655 5654 5653 5651 5649 5647 5644 5642 5639 5636 5634 5630 5627 5624 5620 5615 5611 5607 5603 5599 5595 5591 5586 5582 5577 5572 5569 5564 5559 5553 5548 5543 5538 5533
5644 5645 5645 5646 5646 5646 5646 5645 5644 5643 5642 5640 5638 5636 5634 5632 5629 5626 5623 5620 5617 5614 5610 5607 5602 5598 5594 5590 5586 5581 5577 5572 5567 5563 5558 5553 5548 5543 5538 5532 5527 5523 5520
5632 5633 5634 5634 5634 5634 5634 5633 5632 5631 5629 5628 5626 5624 5622 5619 5616 5613 5610 5607 5604 5601 5597 5593 5590 5586 5581 5577 5573 5568 5563 5558 5553 5548 5543 5538 5534 5529 5524 5519 5513 5508 5503
5620 5621 5622 5622 5623 5622 5622 5621 5620 5619 5618 5616 5614 5612 5609 5607 5604 5601 5597 5594 5591 5588 5584 5580 5577 5573 5568 5564 5560 5556 5550 5545 5539 5534 5529 5524 5519 5514 5509 5504 5499 5495 5490
5609 5609 5610 5610 5611 5610 5610 5609 5608 5607 5605 5604 5602 5599 5597 5594 5591 5587 5584 5582 5579 5575 5572 5568 5564 5560 5556 5551 5547 5543 5538 5532 5526 5520 5515 5510 5505 5500 5495 5490 5486 5481 5478
5597 5598 5598 5598 5599 5598 5598 5597 5596 5595 5593 5592 5590 5587 5584 5582 5579 5575 5572 5569 5567 5563 5560 5556 5551 5547 5543 5538 5533 5529 5524 5519 5514 5508 5503 5497 5492 5487 5482 5477 5472 5468 5463
5586 5587 5587 5587 5587 5587 5586 5585 5584 5583 5581 5580 5578 5575 5573 5570 5566 5563 5560 5557 5554 5551 5547 5543 5539 5534 5529 5525 5520 5515 5510 5506 5501 5496 5491 5486 5481 5476 5470 5465 5460 5455 5450
5575 5575 5575 5575 5575 5575 5574 5573 5572 5571 5569 5568 5566 5564 5561 5558 5555 5552 5548 5545 5541 5538 5534 5530 5526 5521 5517 5512 5507 5503 5498 5493 5489 5484 5480 5475 5470 5465 5460 5454 5449 5443 5438
5564 5564 5564 5563 5563 5563 5562 5561 5560 5559 5557 5556 5554 5552 5550 5547 5543 5540 5537 5533 5529 5525 5522 5518 5513 5509 5504 5500 5495 5491 5487 5482 5477 5473 5468 5464 5459 5454 5449 5444 5438 5433 5428
5553 5552 5552 5552 5552 5551 5550 5549 5549 5548 5546 5545 5543 5541 5539 5536 5533 5529 5526 5522 5518 5514 5510 5506 5501 5496 5492 5488 5484 5479 5475 5471 5466 5462 5457 5452 5447 5443 5438 5433 5429 5424 5420
5541 5541 5541 5541 5540 5540 5539 5538 5537 5537 5535 5534 5532 5530 5528 5525 5522 5519 5515 5511 5507 5503 5499 5494 5490 5486 5481 5477 5472 5468 5464 5460 5456 5451 5446 5442 5437 5432 5428 5423 5419 5415 5411
5531 5531 5530 5530 5530 5529 5529 5528 5527 5526 5524 5523 5521 5519 5516 5514 5511 5508 5504 5500 5496 5492 5488 5484 5479 5475 5471 5466 5462 5458 5454 5449 5445 5441 5436 5432 5427 5423 5418 5414 5410 5406 5402
5520 5520 5520 5520 5519 5519 5518 5517 5517 5515 5514 5512 5510 5508 5505 5503 5500 5497 5493 5489 5485 5481 5477 5473 5469 5465 5460 5456 5452 5448 5444 5439 5435 5431 5426 5422 5418 5413 5409 5405 5401 5398 5394
5509 5509 5509 5509 5509 5508 5507 5507 5506 5505 5504 5502 5499 5497 5495 5492 5489 5486 5483 5480 5476 5471 5467 5463 5459 5455 5450 5446 5442 5438 5434 5430 5425 5421 5417 5413 5408 5405 5401 5397 5393 5390 5387
5500 5500 5499 5499 5498 5498 5497 5496 5496 5495 5493 5492 5489 5487 5485 5482 5479 5476 5473 5470 5466 5462 5458 5454 5449 5445 5441 5437 5433 5429 5425 5421 5416 5412 5408 5404 5400 5396 5393 5389 5386 5383 5379
5490 5490 5489 5489 5488 5488 5487 5486 5486 5485 5483 5481 5480 5477 5475 5473 5470 5467 5464 5461 5457 5453 5449 5445 5440 5436 5432 5428 5424 5420 5416 5412 5408 5404 5400 5396 5392 5389 5386 5383 5379 5376 5373
5480 5480 5479 5479 5478 5478 5477 5477 5476 5475 5473 5472 5470 5468 5466 5463 5461 5458 5455 5452 5448 5444 5440 5436 5431 5427 5423 5419 5416 5412 5408 5404 5400 5396 5392 5389 5385 5382 5379 5376 5373 5370 5367
5471 5471 5470 5470 5469 5469 5468 5467 5466 5465 5464 5462 5461 5459 5456 5454 5451 5449 5446 5443 5439 5435 5431 5427 5423 5419 5415 5411 5408 5404 5400 5397 5393 5389 5386 5382 5379 5375 5372 5369 5366 5363 5361
5462 5462 5461 5461 5460 5460 5459 5458 5457 5456 5455 5453 5452 5450 5448 5445 5443 5440 5437 5434 5430 5427 5423 5419 5415 5412 5408 5404 5400 5397 5394 5390 5386 5383 5379 5376 5373 5369 5366 5363 5360 5358 5355
5454 5453 5453 5452 5451 5451 5450 5449 5448 5447 5446 5445 5443 5441 5439 5436 5434 5431 5428 5425 5422 5418 5415 5412 5408 5404 5401 5397 5394 5390 5387 5383 5380 5377 5374 5370 5367 5364 5361 5358 5355 5352 5350
5445 5445 5444 5444 5443 5442 5441 5440 5440 5438 5437 5436 5434 5432 5430 5427 5425 5422 5420 5417 5414 5411 5408 5404 5401 5398 5395 5391 5388 5384 5381 5378 5375 5372 5369 5365 5362 5359 5356 5353 5350 5348 5345
5437 5436 5436 5435 5435 5434 5433 5432 5431 5430 5429 5427 5426 5423 5421 5419 5417 5414 5412 5409 5407 5404 5401 5398 5395 5392 5389 5386 5383 5379 5376 5373 5370 5367 5364 5361 5358 5355 5352 5349 5346 5343 5342